Voltar ao catálogo

INTELSAT 4-F2

AtivoComunicaçõesGEO
NORAD 4881·PAYLOAD· XX

Lançado Jan 26, 1971 de Cape Canaveral Space Force Station

Loading…

TLE

AtualizadoSource: Space-Track

Época: Sep 14, 2026, 10:13 UTC

1 04881U 71006A   26257.42605784 -.00000233  00000-0  00000-0 0  9992
2 04881   4.1196 275.2700 0011066  99.9132  98.4465  0.98839510122389

Acompanhe INTELSAT 4-F2 em tempo real com AllMySat

Download on the App Store